Weather History for VTSG - May, 2014

Change the Weather History Date:

Wednesday, May 21, 2014

  Actual Average (VTSP) Record (VTSP)
Temperature  
Mean Temperature 83 °F -  
Max Temperature 91 °F 89 °F 93 °F (2000)
Min Temperature 75 °F 78 °F 75 °F (1999)
Cooling Degree Days 18    
Growing Degree Days 33 (Base 50)    
Moisture  
Dew Point 75 °F    
Average Humidity 77    
Maximum Humidity 94    
Minimum Humidity 59    
Precipitation  
Precipitation 0.00 in - - ()
Sea Level Pressure  
Sea Level Pressure 29.80 in    
Wind  
Wind Speed 2 mph ()    
Max Wind Speed 9 mph    
Max Gust Speed -    
Visibility 5.0 miles    
Events      
Averages and records for this station are not official NWS values.
T = Trace of Precipitation, MM = Missing Value Source: Averaged Metar Reports

Daily Weather History Graph

Daily Weather History Graph

Search for Another Location

Airport or City:

Trip Planner

Search our weather history database for the weather conditions in past years. The results will help you decide how hot, cold, wet, or windy it might be!

Date:

Astronomy

May. 21, 2014 Rise Set
Actual Time 6:05 AM ICT 6:36 PM ICT
Civil Twilight 5:42 AM ICT 6:58 PM ICT
Nautical Twilight 5:16 AM ICT 7:24 PM ICT
Astronomical Twilight 4:50 AM ICT 7:51 PM ICT
Moon No Moon Rise 12:09 PM ICT (5/21)
Length of Visible Light 13h 15m
Length of Day
12h 31m
Waning Gibbous, 54% of the Moon is Illuminated
May 21
Waning Gibbous
May 21
Last Quarter
May 29
New
Jun 6
First Quarter
Jun 13
Full

Hourly Weather History & Observations

Time (ICT) Temp. Heat Index Dew Point Humidity Pressure Visibility Wind Dir Wind Speed Gust Speed Precip Events Conditions
1:00 AM 77.0 °F - 75.2 °F 94% 29.83 in 3.1 mi Calm Calm - N/A   Scattered Clouds
2:00 AM 77.0 °F - 75.2 °F 94% 29.80 in 2.5 mi Calm Calm - N/A   Mostly Cloudy
3:00 AM 77.0 °F - 75.2 °F 94% 29.80 in 3.1 mi Calm Calm - N/A   Mostly Cloudy
4:00 AM 75.2 °F - 73.4 °F 94% 29.80 in 3.1 mi Calm Calm - N/A   Mostly Cloudy
6:00 AM 75.2 °F - 73.4 °F 94% 29.80 in 2.5 mi Calm Calm - N/A   Scattered Clouds
7:00 AM 77.0 °F - 75.2 °F 94% 29.80 in 3.1 mi Calm Calm - N/A   Scattered Clouds
8:00 AM 78.8 °F - 77.0 °F 94% 29.83 in 4.3 mi Calm Calm - N/A   Scattered Clouds
9:00 AM 86.0 °F 96.9 °F 77.0 °F 74% 29.83 in 6.2 mi Calm Calm - N/A   Scattered Clouds
10:00 AM 87.8 °F 97.6 °F 75.2 °F 66% 29.83 in 6.2 mi Variable 2.3 mph - N/A   Mostly Cloudy
11:00 AM 89.6 °F 99.8 °F 75.2 °F 62% 29.83 in 6.2 mi SW 6.9 mph - N/A   Scattered Clouds
12:00 PM 91.4 °F 102.5 °F 75.2 °F 59% 29.80 in 6.2 mi Variable 5.8 mph - N/A   Scattered Clouds
1:00 PM 91.4 °F 102.5 °F 75.2 °F 59% 29.77 in 6.2 mi SSW 8.1 mph - N/A   Partly Cloudy
2:00 PM 91.4 °F 102.5 °F 75.2 °F 59% 29.77 in 6.2 mi SW 9.2 mph - N/A   Scattered Clouds
3:00 PM 87.8 °F 97.6 °F 75.2 °F 66% 29.77 in 6.2 mi SSW 9.2 mph - N/A   Scattered Clouds
4:00 PM 86.0 °F 95.1 °F 75.2 °F 70% 29.74 in 6.2 mi SSW 6.9 mph - N/A   Mostly Cloudy
5:00 PM 89.6 °F 99.8 °F 75.2 °F 62% 29.74 in 6.2 mi SW 8.1 mph - N/A   Mostly Cloudy
6:00 PM 87.8 °F 97.6 °F 75.2 °F 66% 29.77 in 6.2 mi SW 5.8 mph - N/A   Mostly Cloudy
7:00 PM 82.4 °F 89.5 °F 75.2 °F 79% 29.77 in 6.2 mi SW 2.3 mph - N/A   Scattered Clouds
10:00 PM 78.8 °F - 75.2 °F 89% 29.83 in 5.6 mi Calm Calm - N/A   Mostly Cloudy